Regional Weather Roundup
Issued by NWS

Home | Current Version | Previous Version | Graphics & Text | Print | Product List | Glossary On
Versions: 1 2 3 4 5 6 7 8 9 10 11 12 13 14 15 16 17 18 19 20 21 22 23 24 25 26 27 28 29 30 31 32 33 34 35 36 37 38 39 40 41 42 43 44 45 46 47 48 49 50
000
ASUS43 KIND 211709
RWRIN

WEATHER ROUNDUP FOR INDIANA
NATIONAL WEATHER SERVICE INDIANAPOLIS IN
1200 PM EST SUN DEC 21 2014

NOTE: "FAIR" INDICATES FEW OR NO CLOUDS BELOW 12,000 FEET WITH NO
SIGNIFICANT WEATHER AND/OR OBSTRUCTIONS TO VISIBILITY.

* - STATION DOES NOT REPORT WEATHER SUCH AS PRECIPITATION OR FOG.

+ - STATION NOT QUALITY CONTROLLED BY THE NATIONAL WEATHER SERVICE.
    USE DATA WITH CAUTION...ESPECIALLY DEWPOINT AND RELATIVE
    HUMIDITY OBSERVATIONS.

INZ001>003-010>013-019-020-211800-
NORTHWEST INDIANA

CITY           SKY/WX    TMP DP  RH WIND       PRES   REMARKS
GARY /AIRPORT/ CLOUDY    34  25  69 SE9       30.22F WCI  26
KNOX *+        CLOUDY    34  24  66 S9        30.23F WCI  27
LA PORTE +     CLOUDY    34  29  81 S7        30.23F WCI  28
MICHIGAN CITY+ CLOUDY    32  23  69 S6        30.22F WCI  26
MONTICELLO +   CLOUDY    34  27  75 SE8       30.24F WCI  27
RENSSELAER +   CLOUDY    32  30  93 S10       30.23F WCI  24
VALPARAISO     CLOUDY    31  26  82 S12       30.22F WCI  22

$$

LMZ046-743>745-211800-
SOUTHERN LAKE MICHIGAN

STATION/POSITION TIME  TEMP WIND        PRES
                       AIR  DIR/SP/G
                 (UTC) (F)  (DEG/KT/KT) (MB)

$$

INZ004-005-014>016-021>024-211800-
NORTH CENTRAL INDIANA

CITY           SKY/WX    TMP DP  RH WIND       PRES   REMARKS
GOSHEN         CLOUDY    33  26  75 SE10      30.24F WCI  25
LOGANSPORT +   SUNNY     34  27  75 S10       30.25F WCI  26
PERU/GRISSOM   MOSUNNY   35  31  87 SE15      30.24F WCI  25
ROCHESTER +    MOSUNNY   37  30  75 S8        30.25F
SOUTH BEND     PTSUNNY   34  27  75 S12       30.23F WCI  25
WARSAW +       CLOUDY    32  27  80 S7        30.25F WCI  26

$$

INZ006>009-017-018-025>027-211800-
NORTHEAST INDIANA

CITY           SKY/WX    TMP DP  RH WIND       PRES   REMARKS
ANGOLA *+      CLOUDY    30  25  80 S8        30.25F WCI  23
AUBURN +       CLOUDY    32  27  80 S3        30.27F
FORT WAYNE     CLOUDY    32  25  75 S8        30.28F HAZE    WCI  25
HUNTINGTON +   CLOUDY    32  26  78 S8        30.26F WCI  25

$$

INZ028-029-035-036-043>045-051>053-211800-
WEST CENTRAL INDIANA

CITY           SKY/WX    TMP DP  RH WIND       PRES   REMARKS
GREENCASTLE +  FAIR      32  27  80 S7        30.25F WCI  26
LAFAYETTE      MOSUNNY   35  27  72 S9        30.24F WCI  28
TERRE HAUTE    MOSUNNY   34  27  75 SE8       30.24F WCI  27

$$

INZ030>032-037>040-046>048-054>057-064-065-211800-
CENTRAL INDIANA

CITY           SKY/WX    TMP DP  RH WIND       PRES   REMARKS
CP ATTERBURY + PTSUNNY   34  28  80 MISG      30.27F
COLUMBUS       MOSUNNY   34  28  80 SE7       30.28F WCI  28
FRANKFORT +    SUNNY     34  29  82 SE10      30.26F WCI  26
INDIANAPOLIS   PTSUNNY   32  25  75 SE9       30.24F WCI  24
-EAGLE CREEK   SUNNY     33  25  72 SE7       30.24F WCI  27
KOKOMO *+      SUNNY     34  27  75 S13       30.25F WCI  25
MARION +       SUNNY     32  27  81 S9        30.26F WCI  24
MT COMFORT *+  PTSUNNY   34  21  60 SE8       30.25F WCI  27
SHELBYVILLE    MOSUNNY   34  27  75 SE7       30.26F WCI  28
ZIONSVILLE +   SUNNY     33  26  75 SE9       30.24F WCI  26

$$

INZ033-034-041-042-049-050-058-059-211800-
EAST CENTRAL INDIANA

CITY           SKY/WX    TMP DP  RH WIND       PRES   REMARKS
MUNCIE         SUNNY     33  26  75 SE9       30.25F WCI  25

$$

INZ060-061-067>069-081>083-085>088-211800-
SOUTHWEST INDIANA

CITY           SKY/WX    TMP DP  RH WIND       PRES   REMARKS
EVANSVILLE     SUNNY     38  29  70 E5        30.25F
HUNTINGBURG *+ SUNNY     37  28  70 E9        30.24F
WASHINGTON +   SUNNY     35  27  73 SE7       30.24F WCI  29

$$

INZ062-063-066-070>080-084-089>092-211800-
SOUTH CENTRAL AND SOUTHEAST INDIANA

CITY           SKY/WX    TMP DP  RH WIND       PRES   REMARKS
BLOOMINGTON    SUNNY     34  28  79 SE7       30.24F WCI  28

$$



USA.gov is the U.S. government's official web portal to all federal, state and local government web resources and services.